DW7628 Weather Reports


Display with metric or nautical units.
time (UTC)temp
F
wind
direction
speed
MPH
gust
MPH
rain 1hr
in
rain 24hr
in
rain mn
in
humidity
%
barometer
mb
20260506044805 57 16 0.0 0.0 0.00 0.00 0.00 62 1012.8
20260506043804 58 16 0.0 0.0 0.00 0.00 0.00 61 1012.7
20260506043304 58 16 0.0 0.0 0.00 0.00 0.00 61 1012.8
20260506042305 58 16 0.0 0.0 0.00 0.00 0.00 61 1012.8
20260506041304 58 28 0.0 0.0 0.00 0.00 0.00 60 1012.7
20260506040804 58 28 0.0 0.0 0.00 0.00 0.00 59 1012.6
20260506035804 59 238 0.0 0.0 0.00 0.00 0.00 56 1012.5
20260506035306 59 238 0.0 0.0 0.00 0.00 0.00 57 1012.4
20260506034303 59 241 0.0 0.0 0.00 0.00 0.00 58 1012.3
20260506033804 59 75 0.0 0.0 0.00 0.00 0.00 60 1011.8
20260506033304 59 121 0.0 0.0 0.00 0.00 0.00 58 1011.9
20260506032805 59 32 0.0 0.0 0.00 0.00 0.00 57 1011.9
20260506032305 59 32 0.0 0.0 0.00 0.00 0.00 57 1012.1
20260506031804 59 32 0.0 0.0 0.00 0.00 0.00 56 1011.9
20260506031304 59 135 0.0 0.0 0.00 0.00 0.00 56 1011.9
20260506030804 59 89 0.0 0.0 0.00 0.00 0.00 56 1011.9
20260506030304 59 21 0.0 0.0 0.00 0.00 0.00 56 1012.1
20260506025804 59 19 0.0 0.0 0.00 0.00 0.00 56 1012.1
20260506024804 59 119 0.0 0.0 0.00 0.00 0.00 57 1012.2
20260506024304 59 157 0.0 0.0 0.00 0.00 0.00 57 1012.3
20260506023803 59 159 0.0 0.0 0.00 0.00 0.00 58 1012.4
20260506023304 59 243 0.0 0.0 0.00 0.00 0.00 59 1012.5
20260506022803 59 72 0.0 0.0 0.00 0.00 0.00 60 1012.3
20260506022306 59 151 0.0 0.0 0.00 0.00 0.00 61 1012.4
20260506021804 59 162 0.0 0.0 0.00 0.00 0.00 61 1012.4
20260506021304 59 51 0.0 0.0 0.00 0.00 0.00 63 1012.5
20260506020804 59 51 0.0 0.0 0.00 0.00 0.00 63 1012.7
20260506020303 59 47 0.0 0.0 0.00 0.00 0.00 62 1012.7
20260506015804 59 290 0.0 0.0 0.00 0.00 0.00 62 1012.7
20260506015305 59 304 0.0 0.0 0.00 0.00 0.00 62 1012.7
20260506014804 59 304 0.0 0.0 0.00 0.00 0.00 61 1012.6
20260506014304 59 141 0.0 0.0 0.00 0.00 0.00 61 1012.4
20260506013804 59 85 0.0 0.0 0.00 0.00 0.00 61 1012.4
20260506013304 59 80 0.0 0.0 0.00 0.00 0.00 61 1012.4
20260506012804 59 309 0.0 0.0 0.00 0.00 0.00 63 1012.9
20260506011804 59 59 0.0 0.0 0.00 0.00 0.00 62 1012.2
20260506011304 59 82 0.0 0.0 0.00 0.00 0.00 60 1012.4
20260506010804 59 232 0.0 0.0 0.00 0.00 0.00 59 1012.5
20260506010304 59 105 0.0 0.0 0.00 0.00 0.00 58 1011.9
20260506005804 59 86 0.0 0.0 0.00 0.00 0.00 60 1012.3
20260506004804 59 82 0.0 0.0 0.00 0.00 0.00 59 1012.5
20260506003804 59 257 0.0 0.0 0.00 0.00 0.00 60 1012.8
20260506003304 59 108 0.0 0.0 0.00 0.00 0.00 61 1012.6
20260506002806 59 76 0.0 0.0 0.00 0.00 0.00 61 1012.8
20260506002307 59 82 0.0 0.0 0.00 0.00 0.00 61 1012.8
20260506001806 59 87 0.0 0.0 0.00 0.00 0.00 62 1013.1
20260506001306 59 87 0.0 0.0 0.00 0.00 0.00 62 1013.2
20260506000806 59 87 0.0 0.0 0.00 0.00 0.00 63 1013.0
20260506000306 59 102 0.0 0.0 0.00 0.00 0.00 63 1013.1
20260505235807 59 76 0.0 0.0 0.00 0.00 0.00 64 1013.3
20260505235306 59 259 0.0 0.0 0.00 0.00 0.00 63 1013.4
20260505234807 59 250 0.0 0.0 0.00 0.00 0.00 63 1013.3
20260505233806 60 108 0.0 0.0 0.00 0.00 0.00 66 1013.2
20260505233306 60 73 0.0 0.0 0.00 0.00 0.00 66 1013.2
20260505232805 60 78 0.0 0.0 0.00 0.00 0.00 67 1013.5
20260505232307 60 78 0.0 0.0 0.00 0.00 0.00 66 1013.4
20260505231806 60 84 0.0 0.0 0.00 0.00 0.00 66 1013.3
20260505231306 60 138 0.0 0.0 0.00 0.00 0.00 66 1013.4
20260505230806 60 129 0.0 0.0 0.00 0.00 0.00 67 1013.4
20260505225806 60 80 0.0 0.0 0.00 0.00 0.00 69 1013.5
20260505223806 59 85 0.0 0.0 0.00 0.00 0.00 71 1013.5
20260505223305 59 79 0.0 0.0 0.00 0.00 0.00 73 1013.5
20260505222806 59 90 0.0 0.0 0.00 0.00 0.00 74 1013.6
20260505222306 59 256 0.0 0.0 0.00 0.00 0.00 75 1013.8
20260505221806 59 246 0.0 0.0 0.00 0.00 0.00 75 1013.8
20260505221305 59 236 0.0 0.0 0.00 0.00 0.00 76 1013.8
20260505214807 59 55 0.0 0.0 0.00 0.00 0.00 76 1013.8
20260505214306 59 100 0.0 0.0 0.00 0.00 0.00 76 1013.8
20260505213806 59 84 0.0 0.0 0.00 0.00 0.00 76 1013.8
20260505213306 59 89 0.0 0.0 0.00 0.00 0.00 75 1013.8
20260505212807 59 86 0.0 0.0 0.00 0.00 0.00 75 1013.9
20260505212306 59 82 0.0 0.0 0.00 0.00 0.00 74 1014.0
20260505211305 59 70 0.0 0.0 0.00 0.00 0.00 74 1014.1
20260505210807 59 86 0.0 0.0 0.00 0.00 0.00 74 1014.1
20260505210305 59 222 0.0 0.0 0.00 0.00 0.00 74 1014.2
20260505204806 59 214 0.0 0.0 0.00 0.00 0.00 76 1014.2
20260505204305 59 76 0.0 0.0 0.00 0.00 0.00 75 1014.3
20260505203806 60 87 0.0 0.0 0.00 0.00 0.00 75 1014.2
20260505202807 60 133 0.0 0.0 0.00 0.00 0.00 75 1014.4
20260505202307 60 59 0.0 0.0 0.00 0.00 0.00 75 1014.4
20260505201305 60 133 0.0 0.0 0.00 0.00 0.00 74 1014.4
20260505200806 60 91 0.0 0.0 0.00 0.00 0.00 73 1014.4
20260505200306 60 90 0.0 0.0 0.00 0.00 0.00 74 1014.4
20260505195806 60 222 0.0 0.0 0.00 0.00 0.00 73 1014.4
20260505195305 60 262 0.0 0.0 0.00 0.00 0.00 74 1014.3
20260505194806 60 294 0.0 0.0 0.00 0.00 0.00 75 1014.3
20260505194306 60 157 0.0 0.0 0.00 0.00 0.00 75 1014.3
20260505193805 60 156 0.0 0.0 0.00 0.00 0.00 75 1014.4
20260505193306 60 267 0.0 0.0 0.00 0.00 0.00 74 1014.4
20260505192806 60 229 0.0 0.0 0.00 0.00 0.00 75 1014.2
20260505192306 60 165 0.0 0.0 0.00 0.00 0.00 75 1014.1
20260505191806 60 150 0.0 0.0 0.00 0.00 0.00 74 1014.0
20260505191306 60 79 0.0 0.0 0.00 0.00 0.00 74 1013.9
20260505190806 60 99 0.0 0.0 0.00 0.00 0.00 74 1014.0
20260505190305 60 131 0.0 0.0 0.00 0.00 0.00 73 1014.0
20260505185806 60 102 0.0 0.0 0.00 0.00 0.00 73 1013.9
20260505185306 60 171 0.0 0.0 0.00 0.00 0.00 73 1014.0
20260505184806 60 140 0.0 0.0 0.00 0.00 0.00 73 1014.0
20260505184305 60 233 0.0 0.0 0.00 0.00 0.00 73 1013.9
20260505183805 61 85 0.0 0.0 0.00 0.00 0.00 72 1013.9
20260505182806 61 215 0.0 0.0 0.00 0.00 0.00 71 1013.8
20260505182306 61 146 0.0 0.0 0.00 0.00 0.00 71 1013.8
20260505181806 61 74 0.0 0.0 0.00 0.00 0.00 70 1013.8
20260505181305 61 123 0.0 0.0 0.00 0.00 0.00 70 1013.8
20260505180805 61 233 0.0 0.0 0.00 0.00 0.00 69 1013.8
20260505175306 62 219 0.0 0.0 0.00 0.00 0.00 66 1013.9
20260505174805 62 181 0.0 0.0 0.00 0.00 0.00 65 1014.0
20260505174306 62 141 0.0 0.0 0.00 0.00 0.00 64 1013.9
20260505173805 62 162 0.0 0.0 0.00 0.00 0.00 63 1014.0
20260505172805 62 250 0.0 0.0 0.00 0.00 0.00 61 1013.8
20260505172306 63 264 0.0 0.0 0.00 0.00 0.00 60 1013.9
20260505171306 63 149 0.0 0.0 0.00 0.00 0.00 57 1013.8
20260505170308 64 162 0.0 0.0 0.00 0.00 0.00 53 1013.8
20260505165805 64 144 0.0 0.0 0.00 0.00 0.00 53 1013.9
20260505165306 64 217 0.0 0.0 0.00 0.00 0.00 52 1013.9
20260505164305 64 256 0.0 0.0 0.00 0.00 0.00 49 1013.9
20260505163807 65 178 0.0 0.0 0.00 0.00 0.00 47 1014.0
20260505162805 65 259 0.0 0.0 0.00 0.00 0.00 46 1013.9
20260505162307 66 262 0.0 0.0 0.00 0.00 0.00 46 1013.9
20260505153305 68 175 0.0 0.0 0.00 0.00 0.00 44 1013.8
20260505152805 68 214 0.0 0.0 0.00 0.00 0.00 45 1013.7
20260505152305 68 226 0.0 0.0 0.00 0.00 0.00 45 1013.7
20260505151805 69 232 0.0 0.0 0.00 0.00 0.00 44 1013.8
20260505151305 69 240 0.0 0.0 0.00 0.00 0.00 42 1013.7
20260505150805 69 125 0.0 0.0 0.00 0.00 0.00 41 1013.8
20260505150305 70 248 0.0 0.0 0.00 0.00 0.00 40 1013.8
20260505140305 71 188 0.0 0.0 0.00 0.00 0.00 44 1013.9
20260505130305 71 291 0.0 0.0 0.00 0.00 0.00 48 1014.3
20260505124805 71 234 0.0 0.0 0.00 0.00 0.00 49 1014.4
20260505124306 71 82 0.0 0.0 0.00 0.00 0.00 48 1014.5
20260505123805 71 285 0.0 0.0 0.00 0.00 0.00 48 1014.5
20260505123306 72 148 0.0 0.0 0.00 0.00 0.00 48 1014.6
20260505122805 71 254 0.0 0.0 0.00 0.00 0.00 48 1014.7
20260505122306 71 44 0.0 0.0 0.00 0.00 0.00 49 1014.8
20260505121805 71 110 0.0 0.0 0.00 0.00 0.00 48 1014.9
20260505120805 71 169 0.0 0.0 0.00 0.00 0.00 48 1015.0
20260505115805 71 123 0.0 0.0 0.00 0.00 0.00 49 1015.0
20260505115305 71 77 0.0 0.0 0.00 0.00 0.00 47 1015.0
20260505114805 70 254 0.0 0.0 0.00 0.00 0.00 47 1014.9
20260505113806 71 279 0.0 0.0 0.00 0.00 0.00 44 1015.0
20260505113305 71 280 0.0 0.0 0.00 0.00 0.00 44 1015.0
20260505112804 70 228 0.0 0.0 0.00 0.00 0.00 46 1015.0
20260505112305 70 159 0.0 0.0 0.00 0.00 0.00 45 1015.1
20260505111805 70 208 0.0 0.0 0.00 0.00 0.00 46 1015.1
20260505111305 70 107 0.0 0.0 0.00 0.00 0.00 44 1015.1
20260505110805 71 252 0.0 0.0 0.00 0.00 0.00 44 1015.1
20260505110305 71 86 0.0 0.0 0.00 0.00 0.00 44 1015.1
20260505101804 69 281 0.0 0.0 0.00 0.00 0.00 43 1015.5
20260505101305 69 91 0.0 0.0 0.00 0.00 0.00 44 1015.6
20260505100806 69 265 0.0 0.0 0.00 0.00 0.00 44 1015.6
20260505100304 69 148 0.0 0.0 0.00 0.00 0.00 45 1015.7
20260505095805 69 55 0.0 0.0 0.00 0.00 0.00 42 1015.7
20260505095305 68 305 0.0 0.0 0.00 0.00 0.00 42 1015.7
20260505094804 67 156 0.0 0.0 0.00 0.00 0.00 44 1015.8
20260505094305 67 29 0.0 0.0 0.00 0.00 0.00 44 1015.8
20260505093805 67 84 0.0 0.0 0.00 0.00 0.00 42 1015.8
20260505093304 67 112 0.0 0.0 0.00 0.00 0.00 40 1015.8
20260505092805 67 186 0.0 0.0 0.00 0.00 0.00 43 1015.7
20260505092305 67 75 0.0 0.0 0.00 0.00 0.00 44 1015.7
20260505091804 67 78 0.0 0.0 0.00 0.00 0.00 38 1015.8
20260505091305 67 205 0.0 0.0 0.00 0.00 0.00 45 1015.7
20260505090805 67 166 0.0 0.0 0.00 0.00 0.00 48 1015.8
20260505090305 67 294 0.0 0.0 0.00 0.00 0.00 51 1015.8
20260505085804 66 255 0.0 0.0 0.00 0.00 0.00 52 1015.8
20260505085305 66 226 0.0 0.0 0.00 0.00 0.00 56 1015.9
20260505083805 66 89 0.0 0.0 0.00 0.00 0.00 56 1015.9
20260505082805 65 82 0.0 0.0 0.00 0.00 0.00 61 1015.9
20260505082305 65 78 0.0 0.0 0.00 0.00 0.00 59 1015.8
20260505081804 65 181 0.0 0.0 0.00 0.00 0.00 60 1015.8
20260505081305 65 141 0.0 0.0 0.00 0.00 0.00 58 1016.0
20260505080805 64 24 0.0 0.0 0.00 0.00 0.00 62 1016.0
20260505080304 64 91 0.0 0.0 0.00 0.00 0.00 65 1016.0
20260505075806 64 84 0.0 0.0 0.00 0.00 0.00 66 1016.0
20260505075304 64 36 0.0 0.0 0.00 0.00 0.00 66 1016.0
20260505074805 63 82 0.0 0.0 0.00 0.00 0.00 66 1015.9
20260505074305 62 76 0.0 0.0 0.00 0.00 0.00 69 1015.9
20260505073805 62 85 0.0 0.0 0.00 0.00 0.00 67 1015.9
20260505073305 62 95 0.0 0.0 0.00 0.00 0.00 69 1015.9
20260505072804 62 217 0.0 0.0 0.00 0.00 0.00 68 1015.9
20260505072305 62 82 0.0 0.0 0.00 0.00 0.00 68 1015.9
20260505071804 62 110 0.0 0.0 0.00 0.00 0.00 70 1015.9
20260505071305 60 99 0.0 0.0 0.00 0.00 0.00 74 1015.9
20260505070304 60 107 0.0 0.0 0.00 0.00 0.00 76 1015.9
20260505065804 59 88 0.0 0.0 0.00 0.00 0.00 76 1015.8
20260505065304 59 86 0.0 0.0 0.00 0.00 0.00 77 1015.9
20260505064805 59 90 0.0 0.0 0.00 0.00 0.00 76 1015.8
20260505064304 59 86 0.0 0.0 0.00 0.00 0.00 74 1015.8
20260505063804 59 83 0.0 0.0 0.00 0.00 0.00 75 1015.8
20260505063305 59 108 0.0 0.0 0.00 0.00 0.00 76 1015.9
20260505062804 58 100 0.0 0.0 0.00 0.00 0.00 76 1015.9
20260505062305 58 82 0.0 0.0 0.00 0.00 0.00 77 1016.0
20260505061304 57 96 0.0 0.0 0.00 0.00 0.00 78 1016.0
20260505060805 57 98 0.0 0.0 0.00 0.00 0.00 78 1015.9
20260505060304 56 122 0.0 0.0 0.00 0.00 0.00 80 1015.9
20260505055304 55 83 0.0 0.0 0.00 0.00 0.00 81 1015.8
20260505054305 55 105 0.0 0.0 0.00 0.00 0.00 80 1015.8
20260505053804 55 91 0.0 0.0 0.00 0.00 0.00 80 1015.7
20260505053304 55 86 0.0 0.0 0.00 0.00 0.00 80 1015.7
20260505052305 55 168 0.0 0.0 0.00 0.00 0.00 79 1015.6
20260505051805 55 168 0.0 0.0 0.00 0.00 0.00 79 1015.6
20260505051304 55 149 0.0 0.0 0.00 0.00 0.00 79 1015.6
20260505050805 55 140 0.0 0.0 0.00 0.00 0.00 79 1015.6